Location: Baili�vre
(50.0696°N, 4.2409°E)
Time: 15:34:58
(UTC+00:00)

Cosmos 1238 Rocket - Pass Details

Date: 08 August 2020
Orbit: 376 x 1027 km, 82.9° (Epoch: 24 September)

Event Time Altitude Azimuth Distance (km) Brightness Sun altitude
Exits shadow 20:28:26 15° 105° (ESE) 1,156 3.9 -10.8°
Maximum altitude 20:29:05 16° 89° (E) 1,112 4.0 -10.9°
Drops below altitude 10° 20:31:00 10° 48° (NE) 1,401 4.8 -11.1°
Sets 20:33:27 0° 26° (NNE) 2,260 6.2 -11.4°
